目前日期文章:201108 (1202)

瀏覽方式: 標題列表 簡短摘要
發表時間 文章標題 人氣 留言
2011-08-23 星球工坊星球經典限定商品組(5桶入) 推薦 (5) (0)
2011-08-23 錸德 RiTEK X系列(二代) DVD-RW 4X 桶裝 (50片) (3) (0)
2011-08-23 Melody白金光雕CD-R 52X燒錄片(25片) (3) (0)
2011-08-23 三叔公雪之戀芒果凍(4入/盒) 分享 (1) (0)
2011-08-23 E-books DVD+R 8X DL (5片單片裝) (3) (0)
2011-08-23 墾丁凱撒大飯店頂級手工生巧克力 (24個/盒) 哪裡買 (6) (0)
2011-08-23 SONY DVD-R 16X燒錄片(300片) (0) (0)
2011-08-23 札幌奶凍捲奶凍捲二盒組(草莓+紅豆) 推薦 (2) (0)
2011-08-23 VITO 元祖鴨蛋蛋麵DVD-R 16X (100片) (3) (0)
2011-08-23 米迦專業烘焙巧克力布蕾派 分享 (2) (0)
2011-08-23 中環DataStone DVD-R 16倍超A級燒錄片(50片) (5) (0)
2011-08-23 ㄚ雄爸手煎鳳梨酥/梅花型(16顆/盒)共2盒 哪裡買 (3) (0)
2011-08-23 E-books 銀河白金片 CD-R 燒錄片(150片) (1) (0)
2011-08-23 海派鮮生宅到家 輕鬆上菜-任選出貨 推薦 (0) (0)
2011-08-23 Ritek錸德繁花系列-紫色CD-R 52X燒錄片(100片) (0) (0)
2011-08-23 Verbatim 威寶 藍鳳凰白金 CD-R 52X 燒錄片(600片) (1) (0)
2011-08-23 「漢坊糕餅」朝悅蛋糕禮盒(14盒團購價) 分享 (2) (0)
2011-08-23 三菱 櫻花五彩版DVD+R 16X燒錄片(200片) (2) (0)
2011-08-23 蔡技食品海藻夾心手工蛋捲禮盒24入/12包 哪裡買 (5) (0)
2011-08-23 SONY DVD+R 8X 8.5GB DL 燒錄片(25片) (8) (0)
2011-08-23 《信裕軒》風華禮統(黑糖) 推薦 (5) (0)
2011-08-23 威寶 AZO 16X DVD-R 4.7GB 滿版可印片 (50片) (0) (0)
2011-08-23 福和生鮮水果整件買-省產檸檬 10kg/箱 分享 (2) (0)
2011-08-23 凡達克 2.5/3.5 吋 硬碟外接座 (NST-D100UFS) [含1394a] (5) (0)
2011-08-23 皇族-健康豆乳餅乾-原味/咖哩/南瓜子/巧克力(240g*4/組) 哪裡買 (10) (0)
2011-08-23 Vinpower Digital迷你型 硬碟對3光雕自動拷貝機 (2) (0)
2011-08-23 一福堂 鳳黃酥(15入) 推薦 (0) (0)
2011-08-23 AKiTiO Hydra Super S Combo 4 Bay 磁碟陣列外接盒全台首賣! (5) (0)
2011-08-23 歐都納A-P1118W.ATUNAS-TEX女款短袖POLO衫 分享 (5) (0)
2011-08-23 [超取] 威剛 A-DATA 2.5吋 CH94 750G外接硬碟 (10) (0)
2011-08-22 Chanson電鍍啞鈴架(CS-9375) 哪裡買 (6) (0)
2011-08-22 創見StoreJet Classic 2.5吋 500GB 行動硬碟 (2) (0)
2011-08-22 SEAKODIVE-8502-深潛用可調式二級頭 推薦 (1) (0)
2011-08-22 天使花樣兩件式泳裝 分享 (1) (0)
2011-08-22 德國 MINOX BF 10x25 輕巧型雙筒望遠鏡(公司貨) 哪裡買 (4) (0)
2011-08-22 MSI微星 UH1000 640G 2.5吋 USB3.0 行動硬碟 (9) (0)
2011-08-22 VIXEN ATREK HR 10X32WP運動型雙筒望遠鏡 推薦 (4) (0)
2011-08-22 Toshiba 新禾公司貨 V5 1TB 黑靚潮行動硬碟 (28) (0)
2011-08-22 KOWA BD 8x25 BR DCF 輕巧型雙筒望遠鏡 分享 (9) (0)
2011-08-22 PX大通DTP-305數位電視接收機(超值三件組) (5) (0)
2011-08-22 ZETT高級北美白樺木高級壘球木棒~原木紅色 哪裡買 (7) (0)
2011-08-22 圓剛 三頻電視棒M H830M (17) (0)
2011-08-22 SPALDING斯伯丁 STORM 黑紅室外球 推薦 (8) (0)
2011-08-22 SPEEDCOM雙支臂壁掛式液晶螢幕/電視支架 (1) (0)
2011-08-22 VICTOR SH808 LM專業羽球鞋 分享 (14) (0)
2011-08-22 A-VISION AG透霧防指紋保護貼8.9吋(EeePC) (2) (0)
2011-08-22 Mizuno棒球練習服 52LA-17509 哪裡買 (1) (0)
2011-08-22 EZstick靜電式霧面螢幕貼 - Viewsonic VX2233WM (0) (0)
2011-08-22 Louisville SluggerTPX 棒球手套 鷹爪II系列 原皮紅邊-V字檔 推薦 (4) (0)
2011-08-22 ACER GD245HQ 24型寬3D顯示Full HD_HDMI高畫質液晶 (5) (0)
找更多相關文章與討論